QPF
0.10 0.06 0.04 0.02 0.01 0.01 0.02 0.02 0.02 0.02 0.02 0.01 0.01 0.03 0.03 0.03 0.03 0.04 0.04 0.05 0.05 0.04 0.04 0.04 0.05 0.05 0.05 0.05 0.06 0.05 0.04 0.04 0.03 0.03 0.03 0.03 0.02 0.02 0.02 0.02 0.02 0.02 0.02
0.10 0.07 0.03 0.02 0.02 0.02 0.02 0.01 0.01 0.02 0.03 0.03 0.03 0.03 0.02 0.02 0.02 0.03 0.03 0.04 0.03 0.04 0.04 0.04 0.05 0.05 0.04 0.04 0.05 0.04 0.03 0.03 0.03 0.03 0.02 0.03 0.02 0.03 0.01 0.01 0.01 0.01 0.01
0.05 0.06 0.05 0.03 0.03 0.03 0.02 0.02 0.01 0.02 0.02 0.02 0.02 0.02 0.02 0.02 0.02 0.02 0.02 0.03 0.03 0.03 0.03 0.03 0.04 0.03 0.03 0.03 0.04 0.04 0.04 0.03 0.02 0.02 0.02 0.02 0.02 0.03 0.01 0.01 0.01 0.01 0.01
0.05 0.06 0.05 0.04 0.03 0.03 0.03 0.02 0.02 0.02 0.02 0.02 0.01 0.01 0.02 0.01 0.01 0.01 0.02 0.04 0.04 0.03 0.03 0.03 0.03 0.03 0.03 0.04 0.04 0.04 0.04 0.04 0.04 0.03 0.03 0.03 0.02 0.01 0.01 0.02 0.01 0.01 0.01
0.07 0.06 0.07 0.06 0.04 0.03 0.03 0.02 0.02 0.01 0.01 0.01 0.01 0.01 0.01 0.01 0.02 0.02 0.03 0.04 0.04 0.03 0.03 0.03 0.03 0.03 0.03 0.03 0.03 0.03 0.03 0.03 0.03 0.03 0.03 0.03 0.03 0.02 0.02 0.01 0.01 0.01 0.01
0.08 0.06 0.07 0.05 0.03 0.03 0.02 0.02 0.01 0.01 0.01 0.00 0.01 0.01 0.01 0.01 0.02 0.02 0.02 0.03 0.03 0.03 0.02 0.02 0.02 0.02 0.02 0.03 0.04 0.04 0.03 0.03 0.02 0.02 0.02 0.02 0.02 0.01 0.02 0.02 0.01 0.01 0.01
0.04 0.04 0.04 0.02 0.02 0.02 0.02 0.02 0.02 0.02 0.01 0.01 0.01 0.01 0.02 0.02 0.01 0.01 0.01 0.02 0.02 0.02 0.02 0.01 0.01 0.01 0.01 0.01 0.02 0.02 0.03 0.02 0.02 0.03 0.03 0.02 0.02 0.02 0.02 0.02 0.01 0.00 0.00
0.01 0.01 0.01 0.01 0.02 0.02 0.02 0.03 0.03 0.02 0.01 0.01 0.02 0.02 0.02 0.01 0.02 0.01 0.02 0.02 0.03 0.02 0.02 0.01 0.01 0.01 0.01 0.01 0.00 0.00 0.01 0.01 0.02 0.03 0.02 0.02 0.03 0.03 0.02 0.02 0.02 0.01 0.01
0.01 0.01 0.02 0.02 0.02 0.02 0.03 0.04 0.04 0.03 0.03 0.02 0.02 0.02 0.02 0.02 0.04 0.04 0.03 0.03 0.03 0.02 0.01 0.01 0.01 0.01 0.01 0.01 0.00 0.00 0.00 0.01 0.02 0.02 0.02 0.03 0.03 0.03 0.02 0.02 0.03 0.03 0.02
0.03 0.03 0.03 0.03 0.02 0.03 0.03 0.04 0.04 0.04 0.04 0.04 0.03 0.02 0.03 0.03 0.03 0.04 0.03 0.03 0.03 0.02 0.02 0.01 0.01 0.01 0.01 0.01 0.01 0.00 0.01 0.01 0.01 0.01 0.02 0.03 0.03 0.04 0.05 0.04 0.04 0.04 0.02
0.06 0.05 0.03 0.02 0.02 0.02 0.03 0.04 0.04 0.04 0.04 0.04 0.04 0.03 0.02 0.02 0.02 0.03 0.03 0.02 0.02 0.03 0.03 0.02 0.01 0.01 0.01 0.01 0.01 0.01 0.01 0.01 0.02 0.02 0.03 0.03 0.03 0.04 0.05 0.05 0.05 0.04 0.03
0.08 0.06 0.04 0.03 0.03 0.03 0.03 0.04 0.03 0.03 0.04 0.03 0.03 0.03 0.03 0.02 0.02 0.03 0.03 0.03 0.02 0.02 0.03 0.02 0.01 0.02 0.02 0.02 0.02 0.02 0.02 0.02 0.02 0.02 0.02 0.02 0.02 0.03 0.05 0.06 0.04 0.03 0.02
0.06 0.06 0.06 0.06 0.05 0.04 0.04 0.04 0.04 0.03 0.04 0.04 0.03 0.03 0.03 0.02 0.02 0.03 0.03 0.03 0.03 0.03 0.02 0.02 0.02 0.02 0.01 0.01 0.02 0.03 0.03 0.02 0.02 0.02 0.02 0.02 0.01 0.02 0.03 0.04 0.04 0.04 0.04
0.04 0.03 0.04 0.06 0.07 0.05 0.04 0.04 0.05 0.04 0.04 0.03 0.03 0.03 0.02 0.02 0.02 0.02 0.03 0.03 0.03 0.03 0.03 0.04 0.04 0.03 0.02 0.02 0.02 0.02 0.02 0.02 0.02 0.03 0.02 0.02 0.01 0.01 0.02 0.03 0.04 0.04 0.04
0.04 0.04 0.04 0.04 0.06 0.06 0.05 0.04 0.03 0.04 0.04 0.03 0.02 0.03 0.03 0.02 0.02 0.04 0.04 0.05 0.05 0.04 0.04 0.04 0.04 0.03 0.02 0.02 0.02 0.02 0.03 0.03 0.03 0.03 0.02 0.02 0.02 0.02 0.03 0.04 0.04 0.05 0.04
0.04 0.04 0.03 0.03 0.04 0.05 0.05 0.04 0.04 0.03 0.03 0.03 0.03 0.03 0.03 0.04 0.03 0.03 0.04 0.05 0.06 0.07 0.09 0.09 0.05 0.03 0.02 0.02 0.02 0.02 0.02 0.02 0.02 0.02 0.02 0.02 0.02 0.03 0.03 0.04 0.05 0.06 0.05
0.05 0.04 0.04 0.05 0.05 0.07 0.07 0.07 0.06 0.05 0.04 0.03 0.02 0.02 0.03 0.03 0.03 0.02 0.03 0.03 0.05 0.09 0.12 0.13 0.08 0.06 0.05 0.03 0.03 0.03 0.02 0.02 0.02 0.02 0.03 0.02 0.03 0.04 0.04 0.05 0.05 0.05 0.05
0.04 0.05 0.05 0.05 0.05 0.06 0.05 0.06 0.06 0.05 0.04 0.02 0.02 0.02 0.03 0.02 0.02 0.02 0.02 0.02 0.02 0.04 0.06 0.07 0.06 0.06 0.05 0.04 0.04 0.03 0.03 0.02 0.02 0.02 0.03 0.03 0.03 0.04 0.04 0.05 0.04 0.04 0.03
0.05 0.05 0.05 0.05 0.04 0.04 0.04 0.04 0.05 0.06 0.05 0.04 0.03 0.03 0.03 0.03 0.03 0.02 0.02 0.02 0.02 0.03 0.03 0.03 0.04 0.05 0.05 0.05 0.05 0.05 0.04 0.03 0.03 0.02 0.02 0.03 0.04 0.05 0.05 0.05 0.04 0.03 0.03
0.06 0.06 0.05 0.04 0.04 0.04 0.04 0.04 0.05 0.05 0.05 0.05 0.05 0.04 0.04 0.03 0.02 0.02 0.01 0.01 0.02 0.03 0.03 0.03 0.03 0.04 0.04 0.04 0.04 0.04 0.04 0.04 0.03 0.03 0.02 0.02 0.04 0.05 0.05 0.04 0.04 0.03 0.03
0.04 0.03 0.02 0.02 0.01 0.01 0.01 0.02 0.02 0.02 0.03 0.03 0.03 0.04 0.04 0.03 0.03 0.02 0.01 0.01 0.02 0.03 0.03 0.04 0.03 0.03 0.03 0.04 0.03 0.03 0.02 0.02 0.02 0.02 0.02 0.02 0.02 0.02 0.03 0.03 0.03 0.04 0.04
0.02 0.01 0.01 0.01 0.01 0.01 0.01 0.01 0.01 0.01 0.01 0.01 0.02 0.02 0.02 0.02 0.02 0.02 0.02 0.02 0.03 0.03 0.02 0.03 0.02 0.02 0.02 0.02 0.02 0.02 0.02 0.02 0.02 0.02 0.02 0.01 0.02 0.02 0.03 0.03 0.03 0.03 0.03
0.03 0.02 0.02 0.02 0.01 0.01 0.01 0.01 0.01 0.01 0.01 0.01 0.01 0.01 0.01 0.02 0.02 0.03 0.03 0.04 0.03 0.02 0.02 0.02 0.01 0.01 0.01 0.01 0.01 0.02 0.02 0.02 0.02 0.02 0.01 0.01 0.01 0.01 0.02 0.02 0.02 0.02 0.03
0.02 0.01 0.02 0.02 0.02 0.02 0.02 0.02 0.02 0.02 0.01 0.01 0.01 0.01 0.01 0.02 0.03 0.04 0.05 0.04 0.03 0.02 0.02 0.01 0.01 0.01 0.01 0.01 0.01 0.01 0.01 0.02 0.02 0.02 0.02 0.02 0.01 0.01 0.01 0.01 0.01 0.01 0.01
0.01 0.01 0.01 0.02 0.03 0.03 0.03 0.03 0.03 0.03 0.02 0.01 0.01 0.01 0.01 0.02 0.03 0.04 0.03 0.02 0.02 0.02 0.02 0.02 0.01 0.01 0.01 0.00 0.00 0.00 0.01 0.02 0.03 0.03 0.03 0.02 0.02 0.01 0.01 0.01 0.01 0.01 0.02
0.03 0.02 0.02 0.02 0.03 0.03 0.03 0.03 0.04 0.05 0.04 0.03 0.03 0.04 0.04 0.04 0.03 0.02 0.02 0.01 0.01 0.01 0.01 0.01 0.01 0.00 0.00 0.00 0.00 0.01 0.01 0.01 0.02 0.04 0.04 0.03 0.02 0.02 0.01 0.01 0.01 0.02 0.02
MSLP
1008.29 1008.49 1008.71 1008.90 1009.01 1009.02 1008.93 1008.76 1008.54 1008.31 1008.08 1007.89 1007.73 1007.61 1007.50 1007.41 1007.30 1007.19 1007.06 1006.92 1006.80 1006.69 1006.60 1006.53 1006.47 1006.43 1006.38 1006.32 1006.25 1006.16 1006.08 1006.01 1005.95 1005.91 1005.92 1005.95 1006.02 1006.13 1006.26 1006.42 1006.61 1006.81 1007.03
1008.50 1008.70 1008.90 1009.08 1009.18 1009.19 1009.11 1008.95 1008.74 1008.51 1008.28 1008.08 1007.91 1007.77 1007.66 1007.56 1007.46 1007.36 1007.26 1007.15 1007.05 1006.96 1006.88 1006.80 1006.73 1006.65 1006.57 1006.47 1006.36 1006.26 1006.16 1006.09 1006.04 1006.03 1006.06 1006.12 1006.21 1006.32 1006.44 1006.57 1006.71 1006.86 1007.01
1008.77 1008.93 1009.11 1009.27 1009.35 1009.36 1009.29 1009.14 1008.95 1008.73 1008.51 1008.31 1008.13 1007.99 1007.86 1007.74 1007.64 1007.54 1007.44 1007.35 1007.26 1007.19 1007.12 1007.05 1006.98 1006.90 1006.80 1006.70 1006.59 1006.48 1006.39 1006.32 1006.29 1006.30 1006.35 1006.42 1006.51 1006.61 1006.70 1006.79 1006.88 1006.95 1007.03
1009.05 1009.18 1009.32 1009.43 1009.49 1009.49 1009.41 1009.28 1009.11 1008.92 1008.73 1008.55 1008.38 1008.23 1008.10 1007.98 1007.86 1007.75 1007.64 1007.55 1007.48 1007.41 1007.36 1007.31 1007.25 1007.18 1007.10 1007.00 1006.90 1006.80 1006.72 1006.66 1006.64 1006.65 1006.69 1006.76 1006.84 1006.91 1006.98 1007.02 1007.05 1007.06 1007.08
1009.33 1009.41 1009.49 1009.55 1009.57 1009.53 1009.45 1009.33 1009.19 1009.04 1008.89 1008.74 1008.61 1008.48 1008.35 1008.22 1008.09 1007.97 1007.86 1007.77 1007.69 1007.63 1007.59 1007.55 1007.52 1007.47 1007.41 1007.33 1007.24 1007.15 1007.07 1007.01 1006.98 1006.98 1007.01 1007.06 1007.11 1007.16 1007.18 1007.19 1007.17 1007.14 1007.10
1009.59 1009.62 1009.63 1009.62 1009.57 1009.49 1009.39 1009.27 1009.15 1009.04 1008.94 1008.84 1008.75 1008.65 1008.55 1008.43 1008.30 1008.17 1008.05 1007.95 1007.87 1007.81 1007.78 1007.76 1007.74 1007.71 1007.67 1007.60 1007.52 1007.43 1007.34 1007.27 1007.22 1007.19 1007.20 1007.22 1007.24 1007.26 1007.26 1007.24 1007.20 1007.14 1007.07
1009.83 1009.80 1009.74 1009.64 1009.52 1009.39 1009.25 1009.12 1009.02 1008.94 1008.88 1008.83 1008.78 1008.72 1008.64 1008.54 1008.41 1008.28 1008.15 1008.04 1007.96 1007.90 1007.87 1007.87 1007.86 1007.84 1007.81 1007.75 1007.67 1007.57 1007.47 1007.37 1007.29 1007.23 1007.20 1007.19 1007.19 1007.19 1007.18 1007.15 1007.11 1007.04 1006.96
1010.07 1009.98 1009.84 1009.67 1009.47 1009.27 1009.08 1008.93 1008.82 1008.75 1008.72 1008.71 1008.70 1008.67 1008.61 1008.52 1008.41 1008.28 1008.14 1008.03 1007.94 1007.88 1007.85 1007.84 1007.84 1007.83 1007.80 1007.74 1007.65 1007.54 1007.41 1007.28 1007.16 1007.07 1007.01 1006.97 1006.95 1006.95 1006.94 1006.93 1006.89 1006.84 1006.78
1010.30 1010.16 1009.97 1009.72 1009.46 1009.19 1008.95 1008.76 1008.63 1008.56 1008.54 1008.54 1008.54 1008.53 1008.49 1008.41 1008.30 1008.17 1008.03 1007.91 1007.81 1007.74 1007.71 1007.70 1007.70 1007.69 1007.66 1007.59 1007.49 1007.35 1007.20 1007.04 1006.90 1006.77 1006.68 1006.63 1006.60 1006.60 1006.61 1006.61 1006.60 1006.58 1006.53
1010.52 1010.36 1010.13 1009.84 1009.52 1009.20 1008.91 1008.68 1008.52 1008.43 1008.39 1008.38 1008.38 1008.37 1008.33 1008.25 1008.14 1008.00 1007.86 1007.73 1007.63 1007.55 1007.52 1007.50 1007.49 1007.48 1007.44 1007.36 1007.25 1007.10 1006.92 1006.74 1006.57 1006.42 1006.31 1006.24 1006.21 1006.22 1006.24 1006.27 1006.29 1006.29 1006.27
1010.72 1010.56 1010.31 1010.00 1009.65 1009.30 1008.98 1008.72 1008.52 1008.39 1008.32 1008.28 1008.26 1008.23 1008.18 1008.09 1007.97 1007.83 1007.69 1007.56 1007.45 1007.38 1007.33 1007.31 1007.30 1007.27 1007.23 1007.14 1007.02 1006.85 1006.66 1006.46 1006.27 1006.11 1005.98 1005.91 1005.87 1005.88 1005.92 1005.97 1006.01 1006.03 1006.03
1010.86 1010.72 1010.49 1010.18 1009.83 1009.47 1009.14 1008.85 1008.62 1008.45 1008.34 1008.27 1008.21 1008.15 1008.08 1007.98 1007.86 1007.72 1007.58 1007.45 1007.35 1007.27 1007.23 1007.20 1007.19 1007.16 1007.10 1007.01 1006.87 1006.70 1006.51 1006.30 1006.09 1005.91 1005.78 1005.69 1005.65 1005.65 1005.69 1005.74 1005.79 1005.83 1005.84
1010.91 1010.80 1010.60 1010.33 1010.01 1009.66 1009.32 1009.02 1008.77 1008.57 1008.42 1008.30 1008.21 1008.13 1008.03 1007.92 1007.80 1007.67 1007.54 1007.43 1007.34 1007.27 1007.24 1007.21 1007.19 1007.16 1007.10 1007.00 1006.87 1006.69 1006.49 1006.27 1006.06 1005.87 1005.72 1005.62 1005.56 1005.55 1005.57 1005.61 1005.66 1005.70 1005.72
1010.85 1010.78 1010.62 1010.39 1010.11 1009.79 1009.47 1009.17 1008.90 1008.67 1008.49 1008.34 1008.22 1008.11 1008.00 1007.89 1007.78 1007.67 1007.57 1007.48 1007.42 1007.37 1007.35 1007.33 1007.31 1007.28 1007.22 1007.12 1006.99 1006.81 1006.61 1006.39 1006.18 1005.97 1005.80 1005.68 1005.59 1005.55 1005.55 1005.56 1005.60 1005.63 1005.65
1010.67 1010.62 1010.51 1010.33 1010.09 1009.81 1009.52 1009.22 1008.95 1008.71 1008.50 1008.32 1008.18 1008.06 1007.95 1007.85 1007.77 1007.69 1007.62 1007.58 1007.54 1007.52 1007.52 1007.51 1007.50 1007.47 1007.41 1007.32 1007.18 1007.01 1006.81 1006.60 1006.38 1006.17 1005.98 1005.83 1005.71 1005.63 1005.58 1005.57 1005.57 1005.59 1005.60
1010.38 1010.36 1010.28 1010.14 1009.95 1009.71 1009.44 1009.16 1008.88 1008.63 1008.40 1008.21 1008.06 1007.93 1007.84 1007.76 1007.71 1007.68 1007.66 1007.65 1007.66 1007.67 1007.69 1007.70 1007.70 1007.67 1007.61 1007.52 1007.39 1007.22 1007.03 1006.82 1006.60 1006.38 1006.18 1006.00 1005.85 1005.73 1005.64 1005.59 1005.56 1005.55 1005.56
1010.03 1010.02 1009.97 1009.87 1009.71 1009.50 1009.25 1008.98 1008.70 1008.44 1008.21 1008.01 1007.85 1007.73 1007.66 1007.61 1007.60 1007.61 1007.64 1007.68 1007.73 1007.78 1007.81 1007.84 1007.84 1007.81 1007.76 1007.67 1007.54 1007.38 1007.20 1007.00 1006.79 1006.57 1006.36 1006.15 1005.97 1005.82 1005.69 1005.60 1005.53 1005.50 1005.49
1009.69 1009.68 1009.64 1009.56 1009.42 1009.23 1008.99 1008.73 1008.46 1008.19 1007.95 1007.74 1007.59 1007.48 1007.43 1007.42 1007.45 1007.50 1007.58 1007.66 1007.74 1007.81 1007.86 1007.89 1007.89 1007.87 1007.81 1007.72 1007.60 1007.46 1007.29 1007.10 1006.90 1006.69 1006.48 1006.27 1006.07 1005.88 1005.72 1005.59 1005.49 1005.42 1005.40
1009.38 1009.37 1009.34 1009.26 1009.13 1008.95 1008.72 1008.46 1008.19 1007.92 1007.67 1007.47 1007.32 1007.23 1007.20 1007.22 1007.28 1007.37 1007.48 1007.59 1007.70 1007.78 1007.84 1007.87 1007.87 1007.83 1007.77 1007.68 1007.57 1007.43 1007.28 1007.11 1006.93 1006.74 1006.54 1006.33 1006.12 1005.92 1005.74 1005.57 1005.44 1005.34 1005.29
1009.13 1009.11 1009.07 1009.00 1008.87 1008.69 1008.46 1008.20 1007.93 1007.66 1007.41 1007.22 1007.08 1007.00 1006.99 1007.04 1007.13 1007.25 1007.38 1007.51 1007.63 1007.71 1007.77 1007.79 1007.77 1007.73 1007.66 1007.56 1007.46 1007.33 1007.20 1007.06 1006.90 1006.73 1006.55 1006.36 1006.15 1005.95 1005.75 1005.57 1005.40 1005.28 1005.19
1008.92 1008.89 1008.84 1008.76 1008.63 1008.44 1008.21 1007.95 1007.67 1007.41 1007.17 1006.99 1006.86 1006.81 1006.82 1006.88 1007.00 1007.14 1007.28 1007.42 1007.54 1007.62 1007.66 1007.67 1007.64 1007.58 1007.50 1007.40 1007.30 1007.19 1007.08 1006.96 1006.83 1006.70 1006.54 1006.37 1006.18 1005.98 1005.78 1005.58 1005.39 1005.23 1005.11
1008.71 1008.66 1008.59 1008.49 1008.35 1008.15 1007.92 1007.66 1007.39 1007.13 1006.91 1006.75 1006.64 1006.61 1006.65 1006.74 1006.87 1007.02 1007.18 1007.32 1007.43 1007.51 1007.54 1007.52 1007.48 1007.40 1007.31 1007.21 1007.11 1007.02 1006.93 1006.84 1006.74 1006.63 1006.51 1006.37 1006.20 1006.01 1005.81 1005.61 1005.40 1005.21 1005.05
1008.45 1008.36 1008.26 1008.13 1007.96 1007.76 1007.52 1007.26 1007.00 1006.77 1006.57 1006.43 1006.36 1006.36 1006.42 1006.54 1006.69 1006.86 1007.03 1007.17 1007.28 1007.35 1007.37 1007.35 1007.29 1007.21 1007.11 1007.02 1006.92 1006.84 1006.77 1006.70 1006.63 1006.55 1006.46 1006.34 1006.19 1006.02 1005.83 1005.62 1005.40 1005.18 1004.98
1008.08 1007.94 1007.80 1007.63 1007.43 1007.20 1006.96 1006.71 1006.47 1006.26 1006.09 1005.99 1005.96 1006.00 1006.09 1006.24 1006.42 1006.61 1006.79 1006.94 1007.06 1007.12 1007.15 1007.12 1007.06 1006.98 1006.89 1006.80 1006.72 1006.65 1006.59 1006.54 1006.49 1006.43 1006.36 1006.26 1006.13 1005.97 1005.78 1005.57 1005.33 1005.09 1004.84
1007.57 1007.38 1007.18 1006.97 1006.73 1006.48 1006.23 1005.99 1005.77 1005.59 1005.47 1005.41 1005.42 1005.50 1005.64 1005.82 1006.03 1006.24 1006.44 1006.61 1006.74 1006.82 1006.85 1006.83 1006.79 1006.72 1006.64 1006.56 1006.49 1006.43 1006.38 1006.34 1006.30 1006.26 1006.19 1006.10 1005.98 1005.82 1005.63 1005.40 1005.15 1004.87 1004.58
1006.95 1006.70 1006.44 1006.17 1005.90 1005.64 1005.38 1005.15 1004.95 1004.81 1004.73 1004.72 1004.78 1004.90 1005.08 1005.30 1005.53 1005.77 1006.00 1006.19 1006.33 1006.43 1006.48 1006.49 1006.46 1006.41 1006.35 1006.29 1006.23 1006.18 1006.14 1006.10 1006.06 1006.01 1005.95 1005.85 1005.71 1005.54 1005.33 1005.08 1004.80 1004.49 1004.15
Thickness
5780 5777 5774 5772 5770 5768 5765 5763 5761 5759 5758 5756 5754 5752 5750 5748 5746 5743 5741 5739 5737 5735 5733 5731 5729 5727 5725 5723 5721 5719 5717 5714 5711 5712 5714 5715 5715 5715 5715 5715 5715 5715 5714
5778 5775 5772 5770 5767 5764 5762 5760 5758 5757 5755 5753 5751 5748 5746 5744 5742 5739 5737 5735 5732 5730 5728 5726 5724 5723 5720 5718 5716 5714 5712 5711 5709 5706 5708 5709 5709 5709 5709 5709 5710 5710 5710
5776 5772 5768 5766 5763 5761 5759 5757 5755 5753 5751 5749 5746 5744 5742 5740 5738 5735 5732 5730 5728 5726 5723 5721 5718 5716 5714 5712 5710 5709 5708 5707 5705 5703 5702 5703 5703 5703 5702 5703 5703 5703 5704
5773 5769 5765 5762 5760 5758 5756 5754 5751 5749 5747 5744 5742 5739 5737 5735 5733 5730 5728 5725 5722 5720 5718 5716 5714 5712 5709 5707 5705 5703 5702 5700 5699 5697 5696 5695 5695 5696 5695 5694 5695 5695 5696
5768 5764 5762 5760 5757 5754 5752 5749 5747 5745 5743 5740 5737 5734 5732 5730 5728 5725 5722 5719 5716 5714 5712 5710 5709 5707 5706 5703 5701 5699 5697 5694 5692 5691 5689 5689 5688 5688 5687 5687 5687 5688 5689
5763 5760 5758 5756 5752 5749 5747 5744 5742 5739 5736 5734 5731 5729 5726 5725 5722 5720 5717 5713 5710 5708 5706 5704 5703 5701 5700 5698 5696 5694 5692 5690 5687 5685 5684 5683 5683 5682 5682 5681 5680 5679 5680
5758 5756 5753 5751 5748 5744 5742 5738 5735 5733 5730 5727 5725 5722 5719 5717 5715 5713 5710 5707 5704 5701 5699 5698 5697 5697 5694 5692 5690 5688 5686 5684 5683 5680 5678 5678 5677 5676 5675 5674 5673 5672 5673
5752 5749 5747 5745 5741 5738 5735 5732 5729 5726 5723 5720 5718 5715 5713 5711 5708 5706 5703 5700 5698 5695 5694 5692 5690 5689 5687 5685 5682 5680 5678 5677 5676 5674 5673 5672 5672 5670 5669 5668 5667 5666 5666
5745 5743 5741 5738 5734 5731 5727 5725 5722 5719 5716 5714 5711 5708 5706 5703 5701 5699 5697 5693 5691 5689 5687 5686 5684 5682 5680 5677 5675 5672 5671 5670 5669 5668 5667 5666 5665 5664 5662 5660 5659 5657 5658
5737 5735 5733 5730 5726 5723 5721 5718 5715 5712 5710 5707 5703 5701 5699 5696 5694 5692 5690 5687 5684 5682 5680 5678 5676 5674 5672 5669 5667 5665 5663 5662 5661 5660 5659 5658 5658 5657 5655 5654 5652 5650 5650
5728 5726 5724 5721 5719 5716 5714 5712 5708 5705 5702 5699 5695 5693 5691 5689 5686 5684 5682 5680 5677 5675 5673 5670 5668 5666 5664 5661 5659 5657 5655 5654 5652 5651 5650 5650 5650 5649 5648 5646 5645 5643 5643
5719 5716 5714 5713 5712 5709 5706 5704 5701 5697 5694 5690 5687 5684 5683 5681 5679 5677 5675 5672 5670 5668 5665 5663 5661 5658 5656 5654 5651 5650 5648 5646 5644 5643 5642 5641 5640 5640 5639 5639 5637 5636 5636
5710 5708 5706 5706 5703 5700 5697 5694 5691 5688 5685 5682 5679 5676 5674 5673 5671 5670 5668 5665 5663 5661 5659 5656 5654 5651 5649 5646 5644 5642 5640 5638 5636 5634 5633 5632 5631 5631 5631 5630 5629 5628 5627
5703 5701 5699 5696 5692 5690 5688 5686 5682 5679 5677 5675 5672 5669 5667 5666 5664 5662 5660 5658 5656 5653 5651 5648 5646 5643 5640 5638 5636 5634 5632 5630 5627 5625 5624 5623 5623 5622 5621 5620 5619 5618 5617
5695 5693 5690 5687 5684 5681 5678 5676 5673 5672 5670 5667 5665 5663 5660 5659 5658 5656 5653 5651 5649 5646 5643 5640 5638 5635 5632 5630 5628 5626 5623 5621 5619 5617 5616 5615 5613 5612 5611 5610 5608 5607 5605
5685 5683 5681 5678 5676 5673 5670 5667 5665 5664 5663 5661 5659 5657 5655 5653 5650 5648 5646 5643 5640 5638 5635 5633 5630 5627 5625 5622 5620 5618 5615 5613 5610 5609 5607 5606 5605 5603 5602 5600 5598 5596 5595
5677 5675 5672 5669 5667 5664 5661 5659 5656 5655 5655 5653 5651 5649 5647 5645 5642 5640 5638 5635 5632 5630 5627 5625 5622 5620 5617 5614 5612 5609 5607 5604 5601 5599 5598 5596 5595 5593 5592 5590 5588 5586 5585
5669 5666 5663 5660 5658 5656 5653 5650 5648 5646 5644 5643 5641 5640 5639 5637 5634 5631 5629 5627 5624 5621 5619 5617 5615 5612 5609 5606 5604 5601 5598 5595 5592 5590 5588 5586 5585 5583 5582 5581 5579 5577 5575
5660 5657 5654 5652 5650 5647 5644 5642 5640 5637 5634 5633 5632 5631 5629 5628 5626 5623 5620 5619 5617 5615 5612 5609 5607 5604 5601 5598 5595 5592 5589 5586 5583 5581 5579 5576 5575 5573 5572 5571 5569 5566 5565
5650 5649 5646 5643 5641 5638 5635 5634 5632 5628 5626 5624 5623 5621 5620 5619 5617 5614 5611 5609 5607 5605 5603 5601 5598 5595 5592 5589 5586 5583 5579 5577 5574 5571 5569 5567 5565 5563 5561 5560 5559 5558 5557
5640 5639 5638 5635 5632 5629 5627 5626 5623 5620 5618 5616 5614 5613 5611 5609 5607 5605 5603 5600 5598 5595 5593 5591 5588 5586 5582 5579 5576 5573 5570 5568 5565 5562 5560 5557 5555 5553 5552 5550 5549 5548 5548
5633 5630 5627 5625 5623 5620 5618 5616 5613 5611 5610 5608 5606 5604 5601 5600 5598 5596 5593 5591 5589 5586 5583 5581 5579 5576 5573 5570 5567 5564 5561 5558 5555 5552 5550 5548 5546 5544 5542 5541 5540 5539 5538
5625 5623 5620 5616 5614 5611 5609 5608 5605 5603 5601 5600 5598 5596 5593 5590 5588 5586 5584 5582 5579 5577 5574 5571 5568 5566 5563 5560 5557 5554 5552 5549 5546 5543 5541 5539 5537 5535 5534 5533 5531 5530 5530
5617 5614 5611 5608 5605 5603 5601 5599 5597 5595 5593 5591 5589 5586 5584 5581 5579 5577 5575 5573 5570 5568 5564 5561 5558 5555 5553 5551 5548 5545 5543 5540 5537 5535 5532 5530 5528 5526 5525 5523 5523 5522 5521
5607 5605 5602 5599 5597 5594 5592 5590 5588 5587 5585 5582 5580 5577 5575 5573 5570 5568 5565 5563 5560 5558 5555 5552 5548 5546 5544 5542 5539 5537 5534 5531 5528 5526 5523 5521 5519 5517 5516 5515 5514 5513 5513
5599 5596 5593 5591 5588 5586 5584 5581 5580 5578 5576 5573 5571 5568 5566 5563 5561 5558 5555 5553 5550 5548 5545 5542 5540 5537 5535 5533 5530 5528 5526 5523 5520 5516 5514 5512 5510 5508 5507 5506 5505 5505 5504